Location: Newark
(48.4472°N, 1.4892°E)
Time: 13:49:20
(UTC+00:00)

Transit 4A - Pass Details

Date: 26 January 2021
Orbit: 866 x 978 km, 66.8° (Epoch: 01 March)

Event Time Altitude Azimuth Distance (km) Brightness Sun altitude
Rises 21:32:58 0° 280° (W) 3,678 11.7 -46.9°
Reaches altitude 10° 21:36:31 10° 299° (WNW) 2,725 10.9 -47.4°
Enters shadow 21:38:17 15° 314° (NW) 2,391 10.5 -47.6°
